UAE462 LSZH-LSZB

Flight info

Callsign UAE462
Flight time 0h 28m
Altitude 7000
Route VEBIT T544 WIL/N0281F090 Z601 ROTOS
Aircraft B772/H-SDE2E3FGHIJ5LORVWXY/LB1D1

Departure

Time 2026-05-06 15:39
Airport Zürich Airport (LSZH)

Arrival

Time 2026-05-06 16:07
Airport Bern Airport (LSZB)
Time Latitude Longitude Altitude Speed Heading
2026-05-06 15:15 47.46193 8.55189 1410 ft 0 kts 186°
2026-05-06 15:22 47.46210 8.55192 1411 ft 4 kts 186°
2026-05-06 15:23 47.46237 8.55196 1408 ft 4 kts 185°
2026-05-06 15:23 47.46262 8.55194 1407 ft 4 kts 151°
2026-05-06 15:23 47.46278 8.55168 1411 ft 4 kts 104°
2026-05-06 15:23 47.46281 8.55148 1411 ft 0 kts 96°
2026-05-06 15:26 47.46280 8.55158 1405 ft 3 kts 96°
2026-05-06 15:26 47.46278 8.55199 1401 ft 5 kts 96°
2026-05-06 15:26 47.46274 8.55243 1401 ft 0 kts 96°
2026-05-06 15:27 47.46274 8.55249 1401 ft 3 kts 96°
2026-05-06 15:27 47.46270 8.55311 1401 ft 13 kts 95°
2026-05-06 15:27 47.46257 8.55500 1407 ft 23 kts 96°
2026-05-06 15:27 47.46241 8.55714 1401 ft 19 kts 96°
2026-05-06 15:28 47.46231 8.55866 1402 ft 15 kts 96°
2026-05-06 15:28 47.46188 8.56024 1412 ft 18 kts 133°
2026-05-06 15:28 47.46089 8.56162 1412 ft 21 kts 136°
2026-05-06 15:28 47.45985 8.56309 1409 ft 13 kts 140°
2026-05-06 15:29 47.45906 8.56411 1411 ft 17 kts 138°
2026-05-06 15:29 47.45816 8.56532 1412 ft 17 kts 130°
2026-05-06 15:29 47.45792 8.56700 1410 ft 18 kts 95°
2026-05-06 15:29 47.45778 8.56901 1410 ft 21 kts 95°
2026-05-06 15:30 47.45762 8.57004 1412 ft 3 kts 133°
2026-05-06 15:30 47.45743 8.57021 1410 ft 3 kts 154°
2026-05-06 15:30 47.45723 8.57030 1414 ft 3 kts 164°
2026-05-06 15:30 47.45694 8.57031 1414 ft 6 kts 181°
2026-05-06 15:31 47.45656 8.56981 1416 ft 10 kts 268°
2026-05-06 15:31 47.45668 8.56892 1412 ft 0 kts 276°
2026-05-06 15:32 47.45688 8.56618 1412 ft 79 kts 276°
2026-05-06 15:32 47.45787 8.55297 1406 ft 149 kts 277°
2026-05-06 15:33 47.45827 8.54570 1406 ft 29 kts 265°
2026-05-06 15:33 47.45792 8.54391 1411 ft 18 kts 249°
2026-05-06 15:33 47.45724 8.54225 1410 ft 17 kts 212°
2026-05-06 15:33 47.45631 8.54237 1410 ft 15 kts 137°
2026-05-06 15:34 47.45585 8.54404 1408 ft 20 kts 109°
2026-05-06 15:34 47.45537 8.54629 1406 ft 22 kts 109°
2026-05-06 15:34 47.45482 8.54872 1406 ft 27 kts 108°
2026-05-06 15:34 47.45419 8.55155 1408 ft 31 kts 108°
2026-05-06 15:35 47.45391 8.55347 1412 ft 17 kts 48°
2026-05-06 15:35 47.45509 8.55447 1409 ft 22 kts 47°
2026-05-06 15:35 47.45516 8.55651 1409 ft 22 kts 96°
2026-05-06 15:35 47.45498 8.55895 1404 ft 27 kts 95°
2026-05-06 15:36 47.45479 8.56179 1406 ft 20 kts 86°
2026-05-06 15:36 47.45526 8.56300 1410 ft 9 kts 50°
2026-05-06 15:36 47.45564 8.56371 1407 ft 9 kts 53°
2026-05-06 15:36 47.45592 8.56450 1408 ft 9 kts 76°
2026-05-06 15:37 47.45586 8.56559 1408 ft 12 kts 99°
2026-05-06 15:37 47.45570 8.56698 1406 ft 15 kts 98°
2026-05-06 15:37 47.45570 8.56861 1407 ft 17 kts 95°
2026-05-06 15:37 47.45593 8.57009 1411 ft 15 kts 31°
2026-05-06 15:38 47.45662 8.56972 1413 ft 11 kts 285°
2026-05-06 15:38 47.45679 8.56762 1414 ft 37 kts 276°
2026-05-06 15:38 47.45715 8.56200 1410 ft 88 kts 276°
2026-05-06 15:38 47.45836 8.54794 1478 ft 177 kts 277°
2026-05-06 15:39 47.46069 8.52920 1969 ft 198 kts 274°
2026-05-06 15:39 47.46187 8.50886 3491 ft 201 kts 273°
2026-05-06 15:39 47.46296 8.48726 4579 ft 216 kts 269°
2026-05-06 15:39 47.45949 8.46471 5121 ft 239 kts 239°
2026-05-06 15:40 47.44792 8.44654 6128 ft 251 kts 216°
2026-05-06 15:40 47.43244 8.43470 7149 ft 249 kts 211°
2026-05-06 15:40 47.41997 8.41751 7849 ft 253 kts 239°
2026-05-06 15:40 47.41148 8.39461 8586 ft 256 kts 239°
2026-05-06 15:41 47.40184 8.37230 8912 ft 259 kts 236°
2026-05-06 15:41 47.39169 8.35023 8905 ft 260 kts 235°
2026-05-06 15:41 47.38226 8.32748 8885 ft 261 kts 241°
2026-05-06 15:41 47.37395 8.30347 8885 ft 263 kts 242°
2026-05-06 15:42 47.36566 8.27944 8884 ft 263 kts 242°
2026-05-06 15:42 47.35727 8.25550 8881 ft 262 kts 242°
2026-05-06 15:42 47.34891 8.23167 8871 ft 262 kts 242°
2026-05-06 15:42 47.34072 8.20827 8895 ft 260 kts 242°
2026-05-06 15:43 47.33226 8.18458 8881 ft 262 kts 242°
2026-05-06 15:43 47.32372 8.16076 8875 ft 263 kts 242°
2026-05-06 15:43 47.31525 8.13700 8883 ft 262 kts 242°
2026-05-06 15:43 47.30684 8.11313 8890 ft 263 kts 242°
2026-05-06 15:44 47.29842 8.08921 8886 ft 263 kts 242°
2026-05-06 15:44 47.28996 8.06530 8875 ft 263 kts 242°
2026-05-06 15:44 47.28153 8.04143 8878 ft 263 kts 242°
2026-05-06 15:44 47.27309 8.01771 8886 ft 259 kts 240°
2026-05-06 15:45 47.26184 7.99734 8888 ft 261 kts 219°
2026-05-06 15:45 47.24695 7.98164 8908 ft 267 kts 217°
2026-05-06 15:45 47.23226 7.96568 8913 ft 265 kts 218°
2026-05-06 15:45 47.21758 7.94954 8893 ft 262 kts 218°
2026-05-06 15:46 47.20304 7.93353 8885 ft 260 kts 218°
2026-05-06 15:46 47.18954 7.91656 8889 ft 255 kts 232°
2026-05-06 15:46 47.18167 7.89277 8900 ft 265 kts 254°
2026-05-06 15:46 47.17994 7.86623 8892 ft 266 kts 270°
2026-05-06 15:47 47.18168 7.83872 8901 ft 267 kts 274°
2026-05-06 15:47 47.18384 7.81157 8900 ft 267 kts 273°
2026-05-06 15:47 47.18583 7.78477 8901 ft 268 kts 273°
2026-05-06 15:47 47.18774 7.75756 8908 ft 267 kts 272°
2026-05-06 15:48 47.18861 7.73065 8888 ft 259 kts 260°
2026-05-06 15:48 47.18262 7.70576 8901 ft 262 kts 240°
2026-05-06 15:48 47.17314 7.68282 8900 ft 262 kts 238°
2026-05-06 15:48 47.16380 7.65983 8890 ft 262 kts 239°
2026-05-06 15:49 47.15454 7.63693 8890 ft 261 kts 239°
2026-05-06 15:49 47.14528 7.61404 8903 ft 261 kts 239°
2026-05-06 15:49 47.13601 7.59113 8895 ft 261 kts 239°
2026-05-06 15:49 47.12694 7.56852 8889 ft 259 kts 241°
2026-05-06 15:50 47.12082 7.54391 8915 ft 260 kts 255°
2026-05-06 15:50 47.11694 7.51758 8917 ft 266 kts 256°
2026-05-06 15:50 47.11313 7.49105 8691 ft 264 kts 256°
2026-05-06 15:50 47.10920 7.46502 7999 ft 263 kts 256°
2026-05-06 15:51 47.10512 7.43870 7245 ft 262 kts 256°
2026-05-06 15:51 47.10106 7.41271 6553 ft 261 kts 257°
2026-05-06 15:51 47.09699 7.38719 6235 ft 256 kts 256°
2026-05-06 15:51 47.08991 7.36367 6036 ft 256 kts 230°
2026-05-06 15:52 47.07591 7.34748 6043 ft 260 kts 211°
2026-05-06 15:52 47.05853 7.34017 6024 ft 263 kts 184°
2026-05-06 15:52 47.04146 7.34520 6022 ft 240 kts 161°
2026-05-06 15:52 47.02763 7.35744 6014 ft 227 kts 147°
2026-05-06 15:53 47.01558 7.37188 5840 ft 222 kts 144°
2026-05-06 15:53 47.00387 7.38650 5364 ft 220 kts 144°
2026-05-06 15:53 46.99230 7.40088 4857 ft 216 kts 144°
2026-05-06 15:53 46.98109 7.41479 4339 ft 212 kts 144°
2026-05-06 15:54 46.96992 7.42859 3823 ft 209 kts 143°
2026-05-06 15:54 46.95902 7.44230 3342 ft 198 kts 135°
2026-05-06 15:54 46.95120 7.45850 3014 ft 192 kts 113°
2026-05-06 15:54 46.94927 7.47721 2978 ft 182 kts 76°
2026-05-06 15:55 46.95630 7.49195 3418 ft 184 kts 27°
2026-05-06 15:55 46.96896 7.49597 3613 ft 185 kts 355°
2026-05-06 15:55 46.98177 7.49489 4367 ft 183 kts 348°
2026-05-06 15:55 46.99490 7.49243 4672 ft 197 kts 346°
2026-05-06 15:56 47.00859 7.48965 4582 ft 197 kts 346°
2026-05-06 15:56 47.02176 7.48613 4519 ft 197 kts 336°
2026-05-06 15:56 47.03327 7.47553 4120 ft 190 kts 306°
2026-05-06 15:56 47.03813 7.45899 4070 ft 173 kts 272°
2026-05-06 15:57 47.03553 7.44197 3891 ft 176 kts 236°
2026-05-06 15:57 47.02535 7.43395 3602 ft 169 kts 191°
2026-05-06 15:57 47.01417 7.43388 3487 ft 152 kts 185°
2026-05-06 15:57 47.00404 7.43506 3376 ft 142 kts 177°
2026-05-06 15:58 46.99426 7.43761 3324 ft 144 kts 173°
2026-05-06 15:58 46.98454 7.44144 3197 ft 144 kts 169°
2026-05-06 15:58 46.97525 7.44532 3191 ft 138 kts 168°
2026-05-06 15:58 46.96584 7.44966 3167 ft 146 kts 166°
2026-05-06 15:59 46.95619 7.45464 2867 ft 145 kts 159°
2026-05-06 15:59 46.94732 7.46063 2739 ft 138 kts 156°
2026-05-06 15:59 46.93892 7.46758 2356 ft 136 kts 147°
2026-05-06 15:59 46.93145 7.47597 2097 ft 136 kts 139°
2026-05-06 16:00 46.92426 7.48482 1825 ft 132 kts 140°
2026-05-06 16:00 46.91739 7.49329 1743 ft 132 kts 139°
2026-05-06 16:00 46.90974 7.50304 2356 ft 148 kts 138°
2026-05-06 16:00 46.90238 7.51234 2529 ft 150 kts 140°
2026-05-06 16:01 46.89378 7.52257 2780 ft 166 kts 135°
2026-05-06 16:01 46.88828 7.53820 3167 ft 181 kts 92°
2026-05-06 16:01 46.89231 7.55551 3421 ft 192 kts 43°
2026-05-06 16:01 46.90395 7.56516 3109 ft 200 kts 11°
2026-05-06 16:02 46.91737 7.56798 3364 ft 198 kts
2026-05-06 16:02 46.93141 7.56948 3931 ft 213 kts 360°
2026-05-06 16:02 46.94657 7.56966 3936 ft 217 kts 353°
2026-05-06 16:02 46.96172 7.56777 3882 ft 224 kts 350°
2026-05-06 16:03 46.97665 7.56301 3803 ft 219 kts 334°
2026-05-06 16:03 46.98994 7.55269 3526 ft 212 kts 317°
2026-05-06 16:03 46.99844 7.53693 3600 ft 188 kts 295°
2026-05-06 16:03 47.00290 7.52002 3849 ft 180 kts 278°
2026-05-06 16:04 47.00167 7.50249 3913 ft 174 kts 242°
2026-05-06 16:04 46.99388 7.48960 3769 ft 168 kts 239°
2026-05-06 16:04 46.99128 7.47316 3307 ft 156 kts 265°
2026-05-06 16:04 46.99100 7.45756 3400 ft 150 kts 265°
2026-05-06 16:05 46.98698 7.44405 2909 ft 148 kts 220°
2026-05-06 16:05 46.97782 7.44033 2653 ft 136 kts 180°
2026-05-06 16:05 46.96862 7.44277 2590 ft 137 kts 162°
2026-05-06 16:05 46.96013 7.44837 2654 ft 135 kts 153°
2026-05-06 16:06 46.95205 7.45573 2657 ft 141 kts 147°
2026-05-06 16:06 46.94402 7.46395 2512 ft 139 kts 147°
2026-05-06 16:06 46.93613 7.47183 2245 ft 136 kts 147°
2026-05-06 16:06 46.92859 7.47967 1981 ft 135 kts 143°
2026-05-06 16:07 46.92131 7.48836 1769 ft 134 kts 139°
2026-05-06 16:07 46.91541 7.49556 1694 ft 49 kts 139°
2026-05-06 16:07 46.91514 7.49667 1693 ft 7 kts 55°
2026-05-06 16:07 46.91517 7.49724 1691 ft 6 kts 120°
2026-05-06 16:08 46.91488 7.49768 1690 ft 6 kts 134°
2026-05-06 16:08 46.91458 7.49809 1690 ft 6 kts 138°
2026-05-06 16:08 46.91426 7.49848 1694 ft 7 kts 142°
2026-05-06 16:08 46.91404 7.49880 1693 ft 0 kts 130°
2026-05-06 16:09 46.91402 7.49881 1693 ft 2 kts 139°
2026-05-06 16:09 46.91350 7.49938 1689 ft 17 kts 142°
2026-05-06 16:09 46.91270 7.50032 1701 ft 21 kts 141°
2026-05-06 16:09 46.91238 7.50070 1739 ft 4 kts 138°
2026-05-06 16:10 46.91230 7.50114 1739 ft 3 kts 78°
2026-05-06 16:10 46.91234 7.50134 1732 ft 4 kts 76°
2026-05-06 16:10 46.91234 7.50140 1732 ft 0 kts 87°